sat.trackr.live / text

‹ back to catalog

STARLINK-2429

NORAD 47838 · 2021-018BD

PAYLOAD ACTIVE UNKNOWN

§ Identity

Operator
Country
US
Launch date
2021-03-11
Launch site
AFETR
Launch vehicle
Mass (kg)
RCS (m²)

Purposes: comms

External: N2YO · Heavens-Above · Gunter

§ Orbital elements

Epoch: 2026-09-03T02:03:31.512960Z

Period
94.01 min
Inclination
53.1610°
Eccentricity
0.0001218
Mean motion
15.31692271 rev/d
Perigee alt
469.9 km
Apogee alt
471.6 km
Semi-major
6,848.9 km
B*
5.8891e-5
RAAN
140.2081°
Arg perigee
89.9344°
Mean anomaly
270.1797°
Rev number
30,386

§ Raw data

STARLINK-24291 47838U 21018BD  26246.08578140  .00001462  00000+0  58891-4 0  99922 47838  53.1610 140.2081 0001218  89.9344 270.1797 15.31692271303863

JSON: /api/v1/satellites/47838 · /tle

For live sub-satellite position, see the globe view (requires WebGL).

§ Visibility from observer

Set your observer location to see the next 7 days of passes ≥ 10°. The values pass through the URL so the page stays shareable.

No JS? Fill the form by hand. The geolocation button needs JavaScript.